KI5NYZ-13 Weather Reports


time (UTC)temp
F
wind
direction
speed
knots
gust
knots
rain 1hr
in
rain 24hr
in
rain mn
in
humidity
%
barometer
mb
20260903231941 96 272 4.3 6.1 0.00 0.16 0.15 30 1002.7
20260903224941 101 186 2.6 7.0 0.01 0.16 0.15 21 1001.3
20260903221939 102 185 1.7 6.1 0.01 0.15 0.14 21 1001.1
20260903214938 101 183 2.6 2.6 0.01 0.15 0.14 23 1001.5
20260903211937 102 174 1.7 1.7 0.00 0.14 0.13 22 1001.8
20260903204936 101 145 0.9 2.6 0.00 0.15 0.12 22 1002.1
20260903201935 101 195 1.7 2.6 0.01 0.15 0.12 23 1002.7
20260903194935 101 237 3.5 7.0 0.01 0.15 0.11 23 1003.1
20260903191934 100 181 3.5 3.5 0.02 0.15 0.10 25 1003.6
20260903184933 99 184 4.3 7.8 0.03 0.15 0.09 26 1004.4
20260903181931 98 191 2.6 6.1 0.02 0.15 0.07 26 1005.1
20260903174930 97 193 3.5 7.8 0.01 0.15 0.05 29 1005.7
20260903171929 95 233 5.2 9.6 0.01 0.16 0.04 31 1006.4
20260903164928 93 233 5.2 9.6 0.01 0.18 0.04 34 1006.8
20260903161927 91 236 5.2 10.4 0.01 0.20 0.03 37 1007.3
20260903154926 89 213 3.5 7.0 0.02 0.21 0.02 39 1007.7
20260903151925 87 224 3.5 7.8 0.01 0.23 0.01 40 1008.0
20260903144925 84 230 6.1 11.3 0.00 0.26 0.00 43 1008.5
20260903141923 81 227 2.6 6.1 0.00 0.29 0.00 46 1009.4
20260903134922 75 244 0.9 2.6 0.00 0.29 0.00 52 1010.4
20260903131921 71 210 0.0 2.6 0.00 0.29 0.00 58 1011.3
20260903124920 68 264 0.0 3.5 0.00 0.29 0.00 63 1011.6
20260903121619 68 360 0.0 0.0 0.00 0.29 0.00 63 1011.3
20260903114618 69 360 0.0 0.0 0.00 0.29 0.00 63 1011.2
20260903111617 70 168 0.0 0.9 0.00 0.29 0.00 59 1010.9
20260903101307 72 208 0.0 1.7 0.00 0.29 0.00 55 1010.4
20260903094306 73 189 0.9 0.9 0.00 0.29 0.00 53 1010.2
20260903091305 73 179 0.9 0.9 0.00 0.29 0.00 53 1010.3
20260903084304 72 194 0.0 0.0 0.00 0.29 0.00 55 1010.5
20260903081303 75 178 0.0 0.0 0.00 0.29 0.00 49 1010.0
20260903074302 77 185 1.7 1.7 0.00 0.29 0.00 45 1009.8
20260903071301 77 183 0.9 0.9 0.00 0.29 0.00 45 1009.6
20260903064300 80 185 1.7 1.7 0.00 0.29 0.00 41 1009.0
20260903061259 81 187 1.7 1.7 0.00 0.29 0.00 39 1008.8
20260903054258 79 177 1.7 1.7 0.00 0.29 0.00 39 1009.0
20260903051257 79 191 0.0 0.0 0.00 0.29 0.00 41 1009.1
20260903044256 80 202 0.0 0.0 0.00 0.29 0.29 40 1009.0
20260903041255 82 182 0.9 0.9 0.00 0.29 0.29 39 1008.7
20260903034254 84 179 0.9 0.9 0.00 0.29 0.29 36 1008.3
20260903031253 85 190 0.9 0.9 0.00 0.29 0.29 35 1007.8
20260903024252 85 181 0.9 0.9 0.00 0.29 0.29 34 1007.3
20260903021251 87 188 0.0 0.0 0.00 0.29 0.29 32 1006.7
20260903014250 89 183 0.0 0.0 0.00 0.29 0.29 31 1006.1
20260903011249 92 182 0.9 0.9 0.00 0.29 0.29 29 1005.4
20260903004248 97 192 0.0 0.0 0.00 0.29 0.29 25 1004.4
20260903001247 98 187 0.0 0.0 0.00 0.29 0.29 23 1004.0
20260902234246 97 166 0.9 0.9 0.00 0.29 0.29 24 1004.3